This is the latest recevied weather packets stored in our database for station/object DL3MEB-6. If no packets are shown the sender has not sent any weather packets the latest 10 day(s).
| Time | Temp. | Humidity | Pressure | Rain* | Wind** | Luminosity | Snow |
|---|---|---|---|---|---|---|---|
| 1787965457 | 14.44° C | 92% | 1015.6 hPa | 0 mm | - | - | - |
| 1787964548 | 14.44° C | 92% | 1015.7 hPa | 0 mm | - | - | - |
| 1787963638 | 14.44° C | 92% | 1015.7 hPa | 0 mm | - | - | - |
| 1787962731 | 15° C | 92% | 1015.8 hPa | 0 mm | - | - | - |
| 1787961832 | 15° C | 94% | 1015.9 hPa | 0 mm | - | - | - |
| 1787960925 | 15° C | 94% | 1015.9 hPa | 0 mm | - | - | - |
| 1787960015 | 15° C | 95% | 1016.3 hPa | 0 mm | - | - | - |
| 1787959114 | 15° C | 95% | 1015.8 hPa | 0 mm | - | - | - |
| 1787957296 | 15.56° C | 95% | 1016.3 hPa | 0 mm | - | - | - |
| 1787956388 | 15.56° C | 95% | 1015.4 hPa | 0 mm | - | - | - |
| 1787955486 | 15.56° C | 94% | 1015.9 hPa | 0 mm | - | - | - |
| 1787954572 | 15.56° C | 94% | 1016.4 hPa | 0 mm | - | - | - |
| 1787953655 | 16.11° C | 94% | 1016.4 hPa | 0.76 mm | - | - | - |
| 1787952746 | 16.11° C | 96% | 1017 hPa | 1.27 mm | - | - | - |
| 1787951844 | 16.67° C | 96% | 1017.2 hPa | 0 mm | - | - | - |
| 1787950938 | 16.67° C | 96% | 1016.4 hPa | 0 mm | - | - | - |
| 1787950036 | 16.67° C | 96% | 1016.1 hPa | 0 mm | - | - | - |
| 1787949133 | 16.67° C | 95% | 1015.8 hPa | 0 mm | - | - | - |
| 1787948225 | 16.67° C | 94% | 1015.4 hPa | 0 mm | - | - | - |
| 1787947318 | 16.67° C | 93% | 1015.3 hPa | 0.76 mm | - | - | - |
| 1787946412 | 17.22° C | 92% | 1015.3 hPa | 2.03 mm | - | - | - |
| 1787945502 | 17.78° C | 92% | 1015 hPa | 4.57 mm | - | - | - |
| 1787943687 | 18.33° C | 89% | 1014.8 hPa | 0 mm | - | - | - |
| 1787942780 | 18.89° C | 88% | 1014.2 hPa | 0.76 mm | - | - | - |
| 1787941880 | 20° C | 89% | 1014.1 hPa | 2.29 mm | - | - | - |
* Rain latest hour (hover to see other rain measurements)
** Current wind speed in m/s (hover to see current wind gust speed)